THOR ABLESTAR DEB, 1511

Orbit data source: Space-Track

THOR ABLESTAR DEB, 1511 is space debris in LEO originally from a launch on Fri, 13 Aug 1965 UTC launched from the Air Force Western Test Range (AFWTR). Debris objects in space refer to the collection of defunct objects orbiting the Earth. Examples of debris include non-operational satellites, rocket bodies, and fragments generated from explosions, collisions, or faulty payload assembly.

Loading next visibility...
Identifier
1511, 1965-065D
Orbit
LEO
Country
Flag of USUS
Related business
Manufacturer
NRL
Mission
Spacecraft
Bus & Motor
Unknown
Mass
Unknown
Launch date (UTC)
1965-08-13 (60 years ago)
Launch vehicle
Unknown
Launch site
Air Force Western Test Range (AFWTR)
Object type
Payload
Rocket body
Debris
Shape & HBR
Unknown shape, 0.6 m
Radar Cross Section
Medium (>0.1 m² and <1 m²)

Expand to show TLE details & history
Last TLE update: 12 hours ago

TLE from 12 hours ago
0 THOR ABLESTAR DEB
1 01511U 65065D   25348.92063363  .00000063  00000-0  10804-3 0  9999
2 01511  89.9876 211.5607 0068949   6.5444   3.9738 13.34184872936119
Epoch: 2025-12-14T22:05Z
TLE epoch observation values (Epoch: 2025-12-14T22:05:42.745Z)
Latitude
10.52164°
Longitude
156.30826°
Altitude
1,081.544 km
Speed
7.337 km/s
True Right ascension
14h 06m 15s
True Declination
10° 27' 46"
Sunlit
Object was in daylight at epoch
Visualization orbit readout
Latitude
Unknown
Longitude
Unknown
Altitude
Unknown
Speed
Unknown
Apparent Right ascension
Unknown
Apparent Declination
Unknown
Sunlit
N/A
Visualization observer readout
Local Sidereal Time
09:07:50
Azimuth
Unknown
Elevation
Unknown
Doppler factor
Unknown
Orbital elements
Apogee altitude
1,179.847 km
Perigee altitude
1,076.338 km
Semi-major axis
7,506.229 km
Eccentricity
0.00689
Inclination
89.9876°
RAAN
211.5607°
Arg. of periapsis
6.5444°
True anomaly
4.02903°
Mean anomaly
3.9738°
Eccentric anomaly
4.00137°
Mean motion
3.33742 °/min
Orbital period
107.87 mins
BSTAR
0.00010804
Loading maneuver chart data...
Computing Atmospheric mass density...
Loading historical data...
Loading historical data...
Loading historical data...
Loading historical data...
Loading historical data...
Loading historical data...
Loading historical data...

Documentation

Showing up to 5 results
|